KF4UQS-14 Weather Reports


time (UTC)temp
C
wind
direction
speed
KPH
gust
KPH
rain 1hr
cm
rain 24hr
cm
rain mn
cm
humidity
%
barometer
mb
20260504000837 12 157 6.4 6.4 0.00 0.00 0.00 63 1016.9
20260504000334 12 140 8.0 11.3 0.00 0.00 0.00 62 1017.0
20260503235832 11 153 4.8 4.8 0.00 0.00 0.00 64 1016.7
20260503235329 11 78 0.0 0.0 0.00 0.00 0.00 64 1016.7
20260503234826 13 96 0.0 0.0 0.00 0.00 0.00 59 1016.6
20260503234324 15 61 0.0 0.0 0.00 0.00 0.00 51 1016.7
20260503233822 16 48 0.0 0.0 0.00 0.00 0.00 39 1016.6
20260503233317 16 8 1.6 1.6 0.00 0.00 0.00 36 1016.4
20260503232814 16 10 1.6 1.6 0.00 0.00 0.00 36 1016.3
20260503232311 16 358 1.6 3.2 0.00 0.00 0.00 36 1016.6
20260503231809 16 350 1.6 3.2 0.00 0.00 0.00 35 1016.4
20260503231306 16 309 3.2 3.2 0.00 0.00 0.00 35 1016.3
20260503230802 16 277 6.4 6.4 0.00 0.00 0.00 35 1016.4
20260503230259 16 323 4.8 4.8 0.00 0.00 0.00 34 1016.3
20260503225757 17 319 3.2 4.8 0.00 0.00 0.00 35 1016.3
20260503225252 17 336 3.2 4.8 0.00 0.00 0.00 34 1016.4
20260503224749 17 357 3.2 3.2 0.00 0.00 0.00 33 1016.2
20260503224247 17 312 6.4 6.4 0.00 0.00 0.00 32 1016.5
20260503223745 17 336 3.2 4.8 0.00 0.00 0.00 32 1016.3
20260503223242 17 296 4.8 4.8 0.00 0.00 0.00 32 1016.4
20260503222738 17 322 6.4 6.4 0.00 0.00 0.00 33 1016.5
20260503222236 17 332 8.0 11.3 0.00 0.00 0.00 32 1016.2
20260503221734 17 294 9.7 12.9 0.00 0.00 0.00 32 1016.1
20260503221232 17 303 9.7 12.9 0.00 0.00 0.00 31 1016.1
20260503220728 17 46 3.2 3.2 0.00 0.00 0.00 32 1016.1
20260503220225 17 290 9.7 12.9 0.00 0.00 0.00 32 1016.2
20260503215722 17 348 3.2 3.2 0.00 0.00 0.00 34 1016.1
20260503215219 17 357 4.8 4.8 0.00 0.00 0.00 32 1016.1
20260503214717 18 254 9.7 14.5 0.00 0.00 0.00 31 1016.2
20260503214213 17 306 8.0 9.7 0.00 0.00 0.00 32 1016.2
20260503213711 17 347 9.7 11.3 0.00 0.00 0.00 32 1016.2
20260503213208 17 344 6.4 6.4 0.00 0.00 0.00 31 1016.1
20260503212705 17 8 6.4 9.7 0.00 0.00 0.00 31 1016.2
20260503212203 17 347 9.7 11.3 0.00 0.00 0.00 31 1016.2
20260503211701 17 349 4.8 4.8 0.00 0.00 0.00 32 1016.1
20260503211156 17 307 16.1 20.9 0.00 0.00 0.00 32 1015.9
20260503210652 17 332 6.4 6.4 0.00 0.00 0.00 32 1016.1
20260503210149 17 338 9.7 12.9 0.00 0.00 0.00 31 1016.1
20260503205644 17 311 9.7 12.9 0.00 0.00 0.00 31 1016.1
20260503205141 17 332 4.8 4.8 0.00 0.00 0.00 34 1016.0
20260503204638 18 180 9.7 16.1 0.00 0.00 0.00 35 1016.1
20260503204135 17 320 8.0 9.7 0.00 0.00 0.00 33 1016.0
20260503203632 17 310 9.7 12.9 0.00 0.00 0.00 34 1016.0
20260503203130 17 6 9.7 11.3 0.00 0.00 0.00 32 1016.1
20260503202627 17 347 9.7 11.3 0.00 0.00 0.00 33 1016.1
20260503202125 17 192 1.6 3.2 0.00 0.00 0.00 35 1016.2
20260503201623 17 295 8.0 9.7 0.00 0.00 0.00 33 1016.4
20260503201119 17 353 17.7 20.9 0.00 0.00 0.00 33 1016.2
20260503200616 17 258 8.0 11.3 0.00 0.00 0.00 34 1016.3
20260503200112 16 332 9.7 12.9 0.00 0.00 0.00 35 1016.2
20260503195609 17 46 8.0 11.3 0.00 0.00 0.00 33 1016.4
20260503195106 17 4 3.2 3.2 0.00 0.00 0.00 33 1016.5
20260503194603 17 338 12.9 14.5 0.00 0.00 0.00 34 1016.5
20260503194058 17 12 3.2 4.8 0.00 0.00 0.00 36 1016.4
20260503193555 17 324 9.7 12.9 0.00 0.00 0.00 35 1016.5
20260503193050 17 345 19.3 24.1 0.00 0.00 0.00 34 1016.3
20260503192546 17 287 16.1 20.9 0.00 0.00 0.00 35 1016.7
20260503192043 17 196 6.4 6.4 0.00 0.00 0.00 39 1016.9
20260503191539 17 300 14.5 16.1 0.00 0.00 0.00 36 1016.8
20260503191036 16 354 12.9 14.5 0.00 0.00 0.00 36 1016.6
20260503190533 16 255 8.0 12.9 0.00 0.00 0.00 37 1016.9
20260503190031 16 278 14.5 20.9 0.00 0.00 0.00 36 1016.8
20260503185527 16 338 14.5 17.7 0.00 0.00 0.00 36 1017.0
20260503185026 16 30 9.7 14.5 0.00 0.00 0.00 35 1017.0
20260503184523 16 312 14.5 16.1 0.00 0.00 0.00 36 1017.2
20260503184019 16 338 8.0 14.5 0.00 0.00 0.00 36 1017.1
20260503183516 16 355 19.3 25.7 0.00 0.00 0.00 35 1017.0
20260503183013 16 3 30.6 38.6 0.00 0.00 0.00 36 1017.0
20260503182512 16 34 4.8 6.4 0.00 0.00 0.00 39 1017.2
20260503182009 16 2 9.7 11.3 0.00 0.00 0.00 37 1017.2
20260503181506 15 294 9.7 11.3 0.00 0.00 0.00 38 1017.2
20260503181002 16 300 8.0 9.7 0.00 0.00 0.00 39 1017.1
20260503180500 15 346 14.5 16.1 0.00 0.00 0.00 37 1017.3
20260503175956 15 345 11.3 12.9 0.00 0.00 0.00 38 1017.2
20260503175455 15 346 19.3 22.5 0.00 0.00 0.00 37 1017.2
20260503174951 15 353 9.7 14.5 0.00 0.00 0.00 39 1017.1
20260503174449 15 356 4.8 6.4 0.00 0.00 0.00 37 1017.3
20260503173944 15 331 12.9 20.9 0.00 0.00 0.00 39 1017.4
20260503173440 15 232 9.7 12.9 0.00 0.00 0.00 40 1017.5
20260503172937 15 336 16.1 20.9 0.00 0.00 0.00 40 1017.4
20260503172435 15 359 16.1 25.7 0.00 0.00 0.00 39 1017.5
20260503171931 15 344 11.3 14.5 0.00 0.00 0.00 39 1017.4
20260503171428 15 301 11.3 12.9 0.00 0.00 0.00 40 1017.5
20260503170926 15 338 12.9 14.5 0.00 0.00 0.00 40 1017.5
20260503170421 15 297 9.7 12.9 0.00 0.00 0.00 42 1017.7
20260503150814 13 357 24.1 29.0 0.00 0.00 0.00 41 1018.0
20260503150309 12 32 17.7 20.9 0.00 0.00 0.00 44 1018.1
20260503140234 12 344 12.9 14.5 0.00 0.00 0.00 47 1017.8
20260503131204 11 8 17.7 22.5 0.00 0.00 0.00 51 1017.5
20260503130701 11 352 9.7 12.9 0.00 0.00 0.00 49 1017.6
20260503130159 11 9 11.3 12.9 0.00 0.00 0.00 50 1017.5
20260503120124 11 0 8.0 9.7 0.00 0.00 0.00 54 1016.9
20260503110551 10 353 14.5 17.7 0.00 0.00 0.00 60 1016.1
20260503090437 8 336 4.8 4.8 0.00 0.00 0.00 82 1014.4
20260503081404 8 335 3.2 4.8 0.00 0.00 0.00 83 1013.6
20260503080901 8 51 0.0 1.6 0.00 0.00 0.00 82 1013.7
20260503080358 8 29 1.6 3.2 0.00 0.00 0.00 81 1013.4
20260503072834 9 349 3.2 3.2 0.00 0.00 0.00 79 1013.0
20260503072331 9 315 4.8 6.4 0.00 0.00 0.00 80 1013.0
20260503071827 9 348 6.4 6.4 0.00 0.00 0.00 79 1012.9
20260503071325 9 331 6.4 6.4 0.00 0.00 0.00 79 1012.9
20260503070821 9 324 4.8 4.8 0.00 0.00 0.00 79 1013.0
20260503070319 9 352 4.8 4.8 0.00 0.00 0.00 80 1013.0
20260503060244 9 6 3.2 3.2 0.00 0.00 0.00 82 1012.5
20260503054731 10 46 0.0 0.0 0.00 0.00 0.00 80 1012.3
20260503054228 10 10 1.6 1.6 0.00 0.00 0.00 80 1012.3
20260503053726 10 9 1.6 3.2 0.00 0.00 0.00 79 1012.3
20260503053225 10 347 3.2 3.2 0.00 0.00 0.00 78 1012.3
20260503052721 10 334 3.2 3.2 0.00 0.00 0.00 76 1012.7
20260503052218 10 359 3.2 4.8 0.00 0.00 0.00 76 1012.5
20260503051713 10 325 3.2 3.2 0.00 0.00 0.00 76 1012.6
20260503051211 11 338 3.2 3.2 0.00 0.00 0.00 76 1012.5
20260503050708 11 352 3.2 3.2 0.00 0.00 0.00 75 1012.6
20260503050204 11 354 1.6 1.6 0.00 0.00 0.00 75 1012.7
20260503045702 11 347 4.8 4.8 0.00 0.00 0.00 75 1012.6
20260503045159 11 352 3.2 4.8 0.00 0.00 0.00 75 1012.5
20260503044655 11 342 3.2 3.2 0.00 0.00 0.00 75 1012.7
20260503044152 11 334 3.2 3.2 0.00 0.00 0.00 79 1012.5
20260503043649 11 352 1.6 3.2 0.00 0.00 0.00 74 1012.7
20260503043146 11 355 3.2 3.2 0.00 0.00 0.00 74 1012.6
20260503042642 11 30 1.6 1.6 0.00 0.00 0.00 74 1012.6
20260503042138 11 344 3.2 3.2 0.00 0.00 0.00 73 1012.8
20260503041634 11 334 4.8 4.8 0.00 0.00 0.00 73 1012.5
20260503041133 11 12 4.8 4.8 0.00 0.00 0.00 73 1012.5
20260503040630 11 332 4.8 6.4 0.00 0.00 0.00 75 1012.5
20260503040128 11 351 4.8 4.8 0.00 0.00 0.00 74 1012.6
20260503035624 11 349 3.2 4.8 0.00 0.36 0.36 74 1012.5
20260503035122 11 0 1.6 3.2 0.00 0.36 0.36 76 1012.5
20260503034618 11 34 1.6 1.6 0.00 0.36 0.36 76 1012.3
20260503034116 11 24 1.6 3.2 0.00 0.36 0.36 73 1012.6
20260503033613 11 16 1.6 1.6 0.00 0.36 0.36 72 1012.5
20260503033110 11 358 1.6 1.6 0.00 0.36 0.36 73 1012.4
20260503032609 11 329 3.2 3.2 0.00 0.36 0.36 74 1012.8
20260503032107 11 330 4.8 6.4 0.00 0.36 0.36 74 1012.4
20260503031604 11 326 3.2 3.2 0.00 0.36 0.36 74 1012.3
20260503031102 11 20 1.6 3.2 0.00 0.36 0.36 75 1012.4
20260503030557 11 18 1.6 1.6 0.00 0.36 0.36 75 1012.5
20260503030054 11 17 1.6 1.6 0.00 0.36 0.36 75 1012.3
20260503025551 11 359 1.6 3.2 0.00 0.36 0.36 75 1012.3
20260503025049 11 25 3.2 3.2 0.00 0.36 0.36 74 1012.4
20260503024544 11 343 1.6 3.2 0.00 0.36 0.36 74 1012.7
20260503024042 11 31 1.6 1.6 0.00 0.36 0.36 73 1012.7
20260503023538 11 3 3.2 3.2 0.00 0.36 0.36 72 1012.6
20260503023036 11 4 1.6 3.2 0.00 0.36 0.36 72 1012.6
20260503022532 11 10 1.6 3.2 0.00 0.36 0.36 73 1012.5
20260503022027 11 350 3.2 3.2 0.00 0.36 0.36 73 1012.7
20260503021525 11 354 3.2 3.2 0.00 0.36 0.36 72 1012.7
20260503021021 11 349 3.2 3.2 0.00 0.36 0.36 72 1012.5
20260503020519 11 0 3.2 3.2 0.00 0.36 0.36 72 1012.7
20260503020015 11 354 3.2 3.2 0.00 0.36 0.36 72 1012.6
20260503015512 11 351 4.8 4.8 0.00 0.36 0.36 72 1012.7
20260503015009 11 2 3.2 3.2 0.00 0.36 0.36 78 1012.4
20260503014505 11 72 0.0 0.0 0.00 0.36 0.36 82 1012.3
20260503014003 10 42 0.0 1.6 0.00 0.36 0.36 81 1012.4
20260503013500 10 59 0.0 0.0 0.00 0.36 0.36 81 1012.3
20260503012957 10 66 0.0 0.0 0.00 0.36 0.36 81 1012.3
20260503012455 11 79 0.0 0.0 0.00 0.36 0.36 80 1012.0
20260503011950 11 70 0.0 1.6 0.00 0.36 0.36 77 1012.1
20260503011447 11 59 0.0 0.0 0.00 0.36 0.36 74 1012.1
20260503010945 11 7 1.6 1.6 0.00 0.36 0.36 72 1012.3
20260503010442 12 353 1.6 3.2 0.00 0.36 0.36 71 1012.2
20260503005939 12 18 3.2 3.2 0.00 0.36 0.36 68 1012.1
20260503005436 12 31 4.8 4.8 0.00 0.36 0.36 69 1012.1
20260503004933 12 23 4.8 4.8 0.00 0.36 0.36 69 1012.2
20260503004430 12 343 4.8 4.8 0.00 0.36 0.36 67 1012.2
20260503003927 12 12 3.2 3.2 0.00 0.36 0.36 67 1012.0
20260503003424 12 20 4.8 6.4 0.00 0.36 0.36 66 1012.1
20260503002921 12 358 6.4 6.4 0.00 0.36 0.36 64 1012.0
20260503002418 12 1 6.4 6.4 0.00 0.36 0.36 63 1011.8
20260503001914 12 1 6.4 6.4 0.00 0.36 0.36 63 1011.8
20260503001411 12 358 6.4 6.4 0.00 0.36 0.36 62 1011.7